Location: Broletto
(44.6000°N, 10.5833°E)
Time: 02:22:34
(UTC+00:00)

Cosmos 2333 - Pass Details

Date: 18 April 2021
Orbit: 829 x 866 km, 70.9° (Epoch: 08 May)

Event Time Altitude Azimuth Distance (km) Brightness Sun altitude
Rises 18:59:32 0° 333° (NNW) 3,457 8.3 -9.6°
Reaches altitude 10° 19:02:00 10° 334° (NNW) 2,513 7.5 -10.0°
Maximum altitude 19:07:49 87° 246° (WSW) 867 4.3 -10.9°
Drops below altitude 10° 19:13:31 10° 158° (SSE) 2,478 6.2 -11.8°
Enters shadow 19:14:00 - 158° (SSE) 2,658 6.3 -11.9°
